User: anonymous   Login
Location: Unspecified
(0.0000°N, 0.0000°E)
Time: 00:28:58
(UTC+02:00)
Language:

Resurs 01 Rocket - Orbit

View from above orbital plane
View from above orbital plane
View from above satellite
View from above satellite

Ground track
Ground track

The orbit data is extracted from the following two-line orbital elements,

1 23343U 94074B   15184.67151845  .00000122  00000-0  25236-4 0  9992
2 23343 098.2182 200.4208 0006560 190.6755 306.7307 14.76540100111381
Epoch (UTC): 03 July 2015 16:06:59
Eccentricity: 0.0006560
inclination: 98.2182°
perigee height: 635 km
apogee height: 645 km
right ascension of ascending node: 200.4208°
argument of perigee: 190.6755°
revolutions per day: 14.76540100
mean anomaly at epoch: 306.7307°
orbit number at epoch: 11138

The dashed part of the orbit path shows where the satellite is in the earth's shadow,  

DLR